Dewpoint
-5 -5 -5 -4 -3 -3 -4 -4 -3 -5 -9 -5 -6 -7 -6 -5 -4 -3 -3 -3 -3 -2 -2 -1 -3 -1 -1 -2 -2 -6 -2 -1 0 1 -0 -0 1 -3 -2 -6 -2 3 3 2 3 4 3 -7 -7 -2 -2 -3 -3 -5
-5 -5 -6 -6 -3 -4 -3 -4 -4 -9 -6 -5 -7 -11 -10 -8 -6 -4 -3 -2 -3 -3 -2 -1 -2 -2 -4 -3 -2 -0 -0 -2 -0 2 -1 -4 -2 -1 -4 -4 -9 0 3 3 -1 -2 -5 -3 -3 -5 -2 -2 -2 -2
-6 -7 -5 -5 -4 -4 -5 -5 -7 -9 -4 -5 -9 -12 -11 -9 -7 -5 -4 -2 -3 -2 -3 -3 -4 -3 -3 -3 -3 -3 -3 -4 -1 -2 -3 -1 -0 -7 -1 -2 -1 -3 -2 3 0 -2 -3 -3 -2 -2 -2 -2 -2 -2
-6 -7 -5 -3 -4 -5 -6 -8 -9 -6 -4 -6 -8 -9 -10 -7 -7 -5 -4 -3 -2 -2 -2 -6 -5 -4 -4 -3 -3 -2 -3 -1 -1 -1 -1 -1 -0 -3 -3 -6 -1 0 1 1 0 -2 -3 -3 -2 -2 -2 -2 -2 -3
-14 -11 -3 -3 -5 -6 -8 -10 -6 -5 -6 -7 -7 -8 -9 -8 -6 -6 -3 -3 -2 -2 -2 -4 -3 -4 -3 -3 -3 -3 -2 -3 1 -0 2 -1 -3 -4 -4 -3 -2 -5 -4 2 1 -2 1 -2 0 -0 -0 -1 -2 -3
-12 -3 -3 -4 -6 -11 -12 -8 -6 -6 -6 -8 -8 -9 -8 -11 -7 -4 -3 -3 -4 -2 -2 -3 -6 -5 -4 -3 -3 -3 -3 -2 -1 1 -2 -3 -5 -1 1 -2 -8 -9 -8 -6 -4 -1 1 1 2 3 3 -1 -3 -4
-5 -3 -4 -5 -8 -12 -11 -7 -7 -8 -8 -11 -12 -12 -9 -10 -6 -3 -3 -2 -3 -3 -2 -3 -5 -6 -5 -3 -2 -2 -3 -2 -1 0 -0 -3 -5 -2 -1 -1 -8 -9 -9 -7 -0 1 1 1 1 -1 -2 -4 -4 -5
-6 -4 -4 -6 -9 -12 -9 -7 -8 -8 -10 -10 -11 -10 -9 -8 -6 -4 -4 -5 -3 -3 -2 -2 -4 -0 -1 -2 -0 -1 -0 -1 -0 -0 -0 -0 -3 -2 -0 -6 -7 -8 -8 -3 1 -0 0 -0 -0 -1 -3 -4 -5 -6
-5 -4 -4 -6 -10 -13 -8 -8 -8 -8 -9 -11 -11 -11 -6 -4 -3 -5 -5 -4 -6 -4 -3 -1 -3 -1 -1 -1 -1 -1 -0 1 -0 0 0 -1 -1 1 -4 -6 -7 -7 -4 -2 -0 -1 -1 -1 -2 -4 -5 -5 -6 -6
-5 -4 -4 -6 -10 -15 -8 -8 -7 -9 -11 -11 -8 -5 -4 -5 -6 -4 -4 -3 -3 -3 -3 -3 -4 -1 -1 -0 0 0 -1 1 1 -1 -3 2 -1 -5 -6 -6 -5 -3 -2 -2 -2 -2 -2 -3 -4 -5 -5 -6 -6 -6
-6 -5 -4 -6 -9 -16 -8 -9 -11 -12 -11 -6 -7 -6 -2 -4 -3 -3 -2 -2 -3 -1 -2 -4 -5 -3 -1 -0 -1 -0 2 2 1 1 0 -0 -2 -4 -5 -5 -4 -3 -2 -2 -2 -3 -3 -4 -4 -5 -5 -6 -6 -7
-9 -6 -5 -5 -7 -14 -11 -10 -10 -8 -6 -6 -4 -4 -3 -3 -3 -3 -2 -2 -0 -2 -1 -2 -2 -2 -1 -1 0 0 0 0 1 -1 1 0 -4 -5 -4 -4 -2 -2 -2 -2 -3 -3 -4 -4 -4 -5 -5 -6 -6 -7
-7 -10 -6 -6 -7 -12 -12 -9 -9 -7 -6 -4 -4 -2 -2 -3 -2 -2 -3 -3 -1 -1 -1 -0 1 -1 -1 -1 0 1 1 1 -4 -2 -1 -5 -4 -6 -4 -1 -1 -2 -2 -3 -4 -4 -4 -4 -4 -5 -5 -6 -7 -7
-4 -9 -10 -8 -7 -10 -10 -9 -8 -8 -4 -4 -2 -1 -2 -2 -3 -5 -6 -5 -1 -2 -2 0 -0 1 1 1 -0 1 -2 -2 -1 -2 -5 -3 -3 -3 -2 -2 -2 -2 -3 -4 -4 -4 -4 -5 -5 -6 -6 -6 -7 -7
-3 -4 -6 -8 -7 -10 -11 -9 -10 -7 -4 -2 -4 -3 -2 -4 -3 -2 -2 -2 -3 -2 -2 1 0 -0 1 1 -2 -2 0 -0 -3 -3 0 -3 -3 -2 -2 -2 -2 -3 -5 -5 -5 -5 -5 -5 -6 -6 -7 -7 -7 -7
-3 -3 -4 -5 -7 -9 -10 -10 -7 -4 -3 -2 -2 -1 -2 -1 0 -1 -1 -1 -1 -2 -1 0 -0 1 1 -1 -1 -1 -5 -5 -0 -1 -2 -3 -3 -2 -2 -2 -3 -5 -6 -6 -5 -5 -5 -5 -6 -6 -7 -7 -7 -9
-3 -4 -4 -4 -6 -9 -8 -4 -4 -2 -2 -2 -1 -2 -2 -2 -1 -1 -1 -2 -0 -1 2 -2 1 -1 -3 -2 -4 -6 -1 -0 -3 -3 -3 -3 -3 -2 -2 -3 -5 -6 -6 -5 -5 -5 -5 -5 -6 -6 -6 -8 -9 -10
-4 -4 -4 -4 -5 -4 -3 -3 -2 -2 -2 -3 -1 -1 -2 -2 -2 -2 -2 -2 -1 -1 -2 -3 -4 -4 -1 -4 -4 -1 -3 -3 -3 -4 -4 -4 -3 -2 -3 -5 -6 -6 -6 -6 -6 -5 -5 -6 -6 -7 -8 -9 -9 -10
-4 -4 -4 -4 -3 -3 -3 -4 -3 -3 -2 -2 -1 -1 -1 -2 -2 -3 -2 -2 -1 0 -2 -3 0 -2 -2 -2 -1 -3 -3 -3 -4 -4 -5 -5 -4 -3 -4 -5 -6 -6 -6 -6 -6 -6 -6 -7 -6 -8 -9 -9 -9 -9
-4 -4 -4 -3 -3 -2 -4 -3 -4 -3 -2 -1 -1 -1 -1 -1 -2 -3 -2 -1 -1 -1 0 -1 -1 -0 -2 -2 -3 -3 -3 -3 -4 -4 -5 -6 -5 -4 -5 -5 -5 -6 -6 -6 -6 -6 -7 -7 -8 -8 -8 -8 -8 -9
-2 -2 -2 -2 -2 -2 -3 -4 -2 -2 -2 -2 -2 -2 -2 -1 -1 -1 -1 -2 -1 -0 -0 -1 -0 -2 -5 -4 -3 -4 -4 -4 -4 -3 -4 -5 -4 -4 -5 -5 -5 -5 -5 -6 -6 -7 -7 -7 -7 -8 -8 -8 -9 -9
-8 -10 -7 -5 -3 -3 -4 -3 -3 -3 -3 -2 -2 -2 -2 -1 -1 -2 -1 -1 -1 -1 -1 -1 -2 -3 -4 -3 -4 -4 -4 -4 -4 -4 -4 -5 -4 -4 -5 -5 -5 -5 -5 -6 -5 -7 -6 -6 -8 -8 -9 -9 -10 -10
-9 -11 -10 -7 -5 -4 -3 -4 -3 -3 -2 -2 -3 -3 -1 -1 -2 -3 -2 -2 -2 -2 -4 -4 -4 -5 -3 -4 -4 -4 -4 -4 -4 -4 -5 -4 -4 -4 -5 -5 -5 -6 -5 -6 -6 -7 -8 -9 -9 -10 -9 -9 -10 -10
-4 -7 -10 -5 -5 -3 -5 -3 -4 -4 -4 -3 -2 -2 -4 -3 -4 -3 -2 -3 -2 -3 -4 -4 -5 -4 -4 -4 -4 -4 -4 -5 -4 -5 -4 -4 -4 -5 -5 -5 -6 -6 -6 -8 -8 -8 -8 -8 -8 -8 -8 -9 -10 -10
-9 -7 -9 -5 -5 -4 -3 -3 -3 -5 -3 -3 -3 -3 -4 -5 -2 -3 -2 -5 -2 -3 -3 -4 -4 -3 -3 -3 -4 -4 -5 -5 -4 -5 -4 -4 -4 -5 -5 -6 -6 -7 -8 -8 -7 -7 -8 -8 -9 -9 -9 -10 -10 -10
-7 -5 -4 -4 -4 -5 -6 -4 -4 -4 -5 -4 -3 -6 -5 -3 -3 -3 -7 -4 -3 -3 -4 -4 -4 -3 -3 -4 -4 -4 -5 -5 -4 -4 -5 -5 -5 -5 -5 -6 -6 -6 -7 -7 -8 -8 -8 -8 -9 -9 -9 -9 -10 -10
-5 -5 -6 -6 -6 -6 -5 -5 -6 -6 -4 -4 -5 -4 -4 -4 -5 -7 -5 -5 -5 -5 -5 -4 -4 -4 -4 -4 -4 -4 -5 -5 -4 -5 -5 -5 -5 -5 -6 -5 -6 -6 -9 -9 -9 -8 -8 -9 -8 -9 -9 -9 -10 -10
-7 -8 -8 -8 -6 -6 -5 -5 -5 -5 -5 -7 -8 -5 -5 -6 -7 -6 -5 -6 -6 -7 -5 -5 -4 -4 -4 -4 -5 -5 -6 -7 -7 -6 -8 -8 -8 -9 -9 -9 -9 -9 -9 -9 -8 -8 -8 -8 -8 -8 -9 -9 -10 -10
-6 -7 -8 -7 -7 -7 -6 -6 -6 -7 -7 -7 -6 -6 -6 -7 -6 -6 -6 -7 -6 -7 -6 -5 -5 -5 -5 -5 -6 -6 -7 -7 -7 -7 -6 -6 -7 -8 -9 -9 -9 -9 -9 -9 -9 -9 -9 -8 -8 -9 -9 -10 -10 -10
-8 -7 -8 -8 -7 -7 -6 -6 -6 -6 -6 -7 -7 -7 -8 -8 -7 -6 -8 -8 -6 -6 -6 -6 -5 -5 -5 -6 -6 -6 -7 -7 -6 -6 -6 -6 -6 -7 -8 -8 -8 -8 -9 -9 -9 -9 -10 -10 -9 -9 -10 -10 -10 -11
-8 -8 -8 -9 -10 -11 -7 -7 -7 -7 -8 -7 -7 -7 -8 -8 -6 -7 -7 -7 -7 -7 -6 -6 -6 -6 -7 -7 -7 -8 -8 -8 -8 -8 -7 -7 -7 -9 -9 -9 -9 -9 -9 -9 -9 -9 -10 -10 -10 -11 -11 -11 -11 -12
-9 -10 -11 -11 -12 -14 -11 -10 -9 -9 -9 -9 -9 -8 -7 -6 -7 -7 -8 -8 -8 -7 -7 -7 -7 -7 -7 -7 -7 -6 -7 -8 -9 -9 -9 -9 -9 -10 -10 -9 -9 -9 -9 -9 -9 -10 -10 -10 -11 -11 -12 -12 -12 -13
-10 -11 -11 -12 -12 -12 -8 -9 -12 -13 -15 -14 -12 -11 -9 -7 -7 -9 -9 -9 -9 -8 -8 -8 -8 -7 -7 -7 -7 -7 -8 -9 -10 -10 -10 -10 -10 -10 -10 -10 -10 -10 -10 -10 -10 -10 -11 -11 -11 -12 -12 -13 -13 -13
Wind_Speed
22 22 21 22 22 23 23 24 25 21 20 18 16 15 15 17 17 18 24 26 31 7 12 12 26 20 9 14 13 10 7 9 8 9 6 8 5 12 13 20 19 13 8 9 10 11 19 19 15 16 6 5 3 4
22 24 24 24 23 22 20 22 21 19 19 17 15 16 16 17 17 14 18 16 20 18 7 8 15 17 17 15 13 6 4 3 3 3 6 5 8 11 16 15 20 14 10 10 12 9 14 13 18 14 4 4 4 9
22 22 24 25 21 20 20 19 18 19 21 17 15 14 14 15 17 18 14 14 14 8 15 18 20 19 19 19 14 14 11 11 6 5 2 3 11 12 13 15 11 8 15 12 14 18 20 15 9 3 4 5 7 11
23 22 22 23 20 19 19 18 19 19 21 18 15 13 12 12 14 17 17 12 12 4 5 10 11 19 17 19 21 22 19 2 5 6 4 4 5 16 13 15 12 7 4 15 12 16 17 17 11 12 7 8 10 14
22 23 23 20 19 19 19 19 19 18 17 17 15 12 11 13 10 13 16 14 13 9 4 9 13 19 17 18 24 25 23 22 10 5 4 5 6 7 10 14 11 17 12 9 10 9 12 15 6 12 11 9 11 18
21 18 20 21 20 20 21 20 19 20 18 16 14 13 12 11 11 11 6 13 12 12 4 4 8 17 14 21 24 22 25 26 17 5 6 18 21 5 4 11 20 24 23 18 15 6 7 7 12 16 18 20 22 23
22 25 23 23 22 22 23 22 20 19 17 14 13 13 12 10 12 10 3 3 14 14 3 4 5 9 18 14 20 20 23 21 15 7 7 18 17 9 12 16 19 25 25 12 6 7 2 3 5 12 17 20 21 22
22 26 25 25 23 24 24 23 21 19 16 13 11 11 9 9 11 14 15 12 12 8 4 4 5 5 10 9 6 10 9 14 11 8 5 8 17 14 7 15 18 21 26 8 12 8 6 8 11 17 20 24 25 24
25 27 28 27 25 26 25 24 22 20 16 13 10 9 8 9 7 9 11 12 12 7 4 4 4 3 10 5 8 6 10 4 8 5 6 8 10 10 11 16 21 26 17 15 17 14 8 17 22 24 26 26 25 24
28 30 31 30 26 27 27 25 22 19 16 13 10 5 5 8 12 8 5 4 7 8 10 6 15 6 10 9 6 3 7 4 4 7 8 5 14 29 32 27 24 17 20 17 20 16 20 23 26 27 27 24 22 23
33 32 33 32 28 29 29 26 22 20 18 13 7 5 3 8 11 6 6 6 8 5 10 12 23 10 8 6 4 9 2 3 4 5 6 4 7 17 34 30 20 16 18 22 15 18 20 24 27 27 24 21 21 21
43 38 36 34 32 30 31 29 27 23 14 12 7 6 7 5 5 4 5 5 5 4 7 5 6 10 5 6 3 5 3 2 3 8 3 3 3 3 13 16 15 17 19 17 14 16 20 22 23 23 22 21 20 19
53 44 39 37 33 31 32 30 29 19 13 9 4 7 6 5 7 5 5 4 3 2 3 5 3 7 6 6 3 2 4 4 2 3 3 2 7 3 13 16 16 17 19 14 15 18 20 22 22 21 21 20 24 23
50 49 42 37 35 31 30 29 27 21 9 6 4 5 4 5 6 6 6 5 3 5 7 8 2 2 3 5 3 4 1 2 3 3 3 4 4 6 12 15 19 20 18 20 20 21 23 23 23 23 24 23 21 19
45 49 42 38 33 30 30 28 26 18 7 5 4 4 7 9 8 8 7 7 9 7 8 2 3 4 2 2 3 1 2 4 5 2 3 7 1 8 12 15 17 18 22 23 23 24 26 26 26 24 20 20 17 16
45 44 38 37 34 30 27 25 22 14 5 4 5 4 5 6 5 5 7 10 9 8 5 5 1 2 3 2 2 5 3 3 2 3 5 6 2 8 13 16 16 22 22 22 20 20 22 22 22 21 20 17 15 14
47 36 36 34 34 32 28 22 14 8 4 3 4 6 10 11 11 6 7 8 7 7 3 2 2 1 1 2 3 2 3 4 5 5 5 4 3 11 16 18 21 20 21 19 19 20 21 21 19 19 18 17 16 15
36 41 37 34 35 31 26 8 5 3 5 9 6 5 6 10 11 11 6 8 5 5 7 2 2 2 3 3 2 2 3 2 4 5 3 3 4 12 15 20 21 21 20 19 18 19 19 19 18 17 16 16 16 15
35 33 32 30 26 7 3 2 2 4 7 6 7 8 7 8 10 10 10 11 10 7 3 2 2 3 2 2 4 7 6 5 4 1 2 8 9 16 20 22 22 21 20 19 18 17 17 16 13 14 15 14 13 14
32 28 29 21 6 1 1 3 4 4 5 3 5 6 5 5 7 7 5 5 8 5 3 3 3 1 2 4 5 7 7 5 3 4 5 7 13 18 21 20 20 20 19 18 16 16 17 15 13 12 12 13 12 12
10 11 14 12 9 8 5 4 7 6 5 5 4 6 5 4 5 5 5 5 7 4 3 6 5 5 5 6 5 6 6 4 5 4 9 12 14 15 19 19 19 16 16 15 15 14 13 11 12 12 12 13 12 10
6 6 7 10 6 4 6 7 5 4 4 4 4 4 4 3 4 5 4 7 5 7 6 7 7 7 4 3 4 3 5 7 9 9 12 16 15 15 16 18 16 14 13 13 12 13 12 12 12 12 12 11 11 9
1 2 4 6 6 7 4 5 4 4 3 2 2 3 3 3 3 3 4 6 7 13 13 13 12 10 8 5 3 4 5 6 6 9 14 12 12 13 15 15 13 14 12 11 11 12 12 11 11 10 10 11 10 10
3 3 3 3 4 2 2 3 3 3 3 3 3 3 3 2 2 4 4 5 7 10 13 14 13 11 10 9 5 5 5 8 9 12 11 13 12 12 12 12 11 11 10 13 13 12 10 10 9 10 10 11 11 12
4 2 1 3 1 2 3 2 2 3 3 3 2 4 2 2 3 3 3 3 8 9 10 12 13 12 11 10 8 8 6 9 10 12 12 10 11 12 12 12 11 12 12 12 12 10 9 9 8 8 10 11 12 12
3 3 3 3 2 3 2 3 2 2 2 3 3 2 2 2 3 5 0 5 4 5 11 15 15 13 12 12 11 10 10 10 9 9 11 11 11 12 14 14 13 12 12 11 10 10 9 9 9 9 9 10 12 12
1 3 2 2 4 5 4 5 5 4 3 3 2 2 2 4 5 1 3 5 5 5 7 12 13 13 12 12 13 13 12 11 10 9 11 12 12 10 10 11 10 9 10 11 10 9 9 8 9 9 9 10 11 12
1 3 3 9 5 3 4 3 3 3 2 3 3 4 3 3 2 3 3 11 12 8 8 11 13 11 13 14 15 14 14 13 12 11 12 12 11 11 11 11 10 10 9 9 9 9 10 9 9 9 9 10 11 11
1 4 6 2 4 4 3 3 3 2 2 3 3 3 3 4 5 8 11 14 12 6 7 11 14 16 14 12 12 15 15 14 14 15 13 10 13 14 13 12 11 10 9 8 9 9 9 10 10 9 8 9 11 11
2 4 4 3 3 3 3 5 8 10 10 11 11 16 20 19 18 21 19 14 10 8 8 11 16 16 15 16 16 15 15 16 14 12 12 11 10 13 14 13 12 12 10 9 9 8 8 8 8 8 9 11 11 10
5 4 4 6 5 9 10 11 14 17 19 18 16 21 24 20 19 21 18 16 13 10 10 11 14 16 15 16 17 17 16 17 17 16 16 15 13 11 12 13 12 11 11 10 8 8 8 8 8 8 8 9 10 10
4 5 6 8 13 17 18 12 10 9 12 12 15 15 15 10 10 8 10 9 9 8 10 10 11 13 16 16 15 16 13 14 15 14 13 12 12 12 12 12 12 11 10 10 9 9 9 9 9 9 10 9 10 10
7 11 12 10 5 4 3 7 11 14 15 17 18 17 16 14 8 5 5 6 10 10 8 6 8 9 11 13 14 14 13 11 11 12 12 12 11 11 11 11 11 11 10 10 10 10 10 10 9 10 10 11 11 11
Wind_Direction
254 254 257 251 248 248 240 242 236 236 231 223 220 218 217 218 222 224 239 233 217 242 257 242 231 267 239 228 231 244 217 213 185 215 210 253 251 226 253 251 228 198 214 220 234 242 245 250 268 201 279 306 277 203
250 259 250 254 246 238 244 228 222 227 218 210 213 216 214 217 225 231 238 240 225 233 248 242 240 240 254 245 248 216 240 123 181 265 229 263 242 272 267 255 248 229 206 229 217 237 244 260 280 217 281 285 226 160
261 248 254 243 231 239 229 218 217 217 207 198 212 207 211 217 222 227 238 228 209 258 277 255 244 244 239 237 237 253 257 240 218 235 252 295 255 235 236 239 270 283 286 216 241 258 271 257 256 261 235 217 203 166
255 252 250 228 219 223 213 212 212 210 211 195 200 198 207 217 221 223 222 235 217 238 267 271 252 240 238 234 232 234 247 265 191 188 200 223 260 297 276 275 222 210 266 238 235 249 270 270 250 236 217 159 155 153
258 247 226 214 214 212 208 203 198 192 190 195 200 201 200 212 217 212 221 229 223 231 309 295 279 256 240 233 234 236 241 239 205 208 208 240 274 252 267 272 263 248 239 216 252 265 248 263 287 223 189 156 159 159
239 220 213 210 206 204 198 194 193 194 196 199 201 207 208 213 205 199 225 241 228 231 273 279 283 259 248 231 234 236 231 239 234 214 238 248 246 210 251 260 251 246 254 251 253 263 234 276 286 244 223 182 173 164
232 212 205 205 203 198 193 188 188 188 188 192 203 205 207 218 203 226 233 191 193 202 241 270 256 239 229 224 225 230 229 227 224 239 232 259 259 264 253 257 267 273 274 271 175 149 28 222 218 187 171 159 161 155
218 206 201 202 200 194 190 188 188 184 182 186 193 199 207 215 217 240 250 257 194 184 239 245 256 209 186 199 202 211 214 218 220 220 225 235 249 228 255 251 262 269 256 207 181 191 157 202 183 171 165 158 154 150
212 203 201 199 196 191 187 187 183 182 183 186 188 198 197 209 220 240 233 256 277 258 276 251 249 192 172 180 194 209 207 219 211 213 216 229 227 226 238 255 264 266 219 212 177 167 206 197 182 172 165 163 156 153
208 200 197 195 193 188 185 183 181 181 181 177 174 179 217 221 200 200 207 208 213 211 220 250 265 240 178 172 190 226 197 228 222 217 200 232 241 244 245 258 266 264 197 191 165 161 180 181 177 174 171 165 162 159
202 195 192 191 187 185 182 180 175 169 170 175 184 223 197 171 170 208 218 204 201 219 206 235 231 236 213 224 217 203 235 214 240 181 208 231 240 233 235 237 237 228 197 191 202 190 184 179 175 171 166 163 160 157
195 192 186 187 185 181 181 180 174 171 178 185 188 185 151 191 197 220 209 202 226 240 186 227 232 229 193 194 200 192 247 228 267 151 238 246 252 217 192 193 186 166 170 181 179 180 175 174 171 167 162 158 155 156
186 188 180 184 182 179 179 179 178 175 187 182 219 196 187 181 228 251 200 213 248 238 237 216 215 182 163 191 217 241 227 231 251 233 247 357 16 151 153 159 162 164 160 161 156 159 161 159 160 159 155 155 165 174
181 181 181 180 179 178 178 180 178 181 178 212 219 195 223 193 239 226 257 325 240 264 274 214 134 243 187 188 202 241 220 265 246 257 237 48 23 154 146 149 154 154 152 147 147 148 148 148 150 159 172 176 174 173
171 172 175 177 171 170 176 176 182 180 216 240 231 237 218 245 279 299 312 293 271 277 277 191 156 230 171 236 228 269 226 237 222 294 60 10 347 160 152 153 152 149 151 150 149 148 155 163 165 167 170 170 174 177
158 156 166 171 171 167 164 167 172 198 246 242 242 263 283 282 268 252 269 281 270 265 240 266 250 224 216 239 222 228 255 261 59 32 358 336 207 164 157 152 157 154 155 152 154 158 161 162 163 162 165 171 176 183
144 147 155 157 161 167 169 166 177 226 243 253 251 250 261 273 264 277 303 274 294 254 236 211 231 281 44 231 249 249 305 12 352 328 322 294 222 163 167 169 157 150 149 150 152 155 159 163 166 169 173 176 183 188
141 146 148 150 149 156 168 200 204 243 247 245 254 264 247 267 285 290 275 269 249 236 238 276 325 250 249 262 299 42 334 314 300 310 278 213 167 182 176 160 152 151 151 153 157 160 165 167 169 174 183 187 191 196
132 143 147 152 159 131 130 204 249 279 255 276 273 268 257 262 270 274 272 269 239 276 273 259 261 253 295 6 311 302 300 302 297 226 252 181 166 172 166 159 157 157 159 160 161 162 166 165 172 183 189 191 196 202
114 129 147 158 181 216 17 271 224 267 276 280 245 255 259 268 282 291 283 243 214 219 204 221 246 344 297 304 288 284 289 270 216 164 146 160 160 162 162 157 160 162 162 163 167 173 174 175 183 187 196 192 200 205
133 175 181 200 216 220 237 227 224 240 273 260 269 250 267 267 257 249 241 215 228 221 228 225 232 229 248 276 289 280 267 215 204 192 170 152 147 152 155 166 161 161 164 168 172 178 175 184 196 203 206 203 206 209
233 232 209 202 213 226 248 232 256 275 251 290 262 239 269 254 233 230 214 219 238 232 216 223 229 220 239 281 305 259 216 185 188 166 158 160 151 156 160 161 162 163 168 174 177 185 179 192 204 208 209 212 210 208
290 256 231 212 213 213 223 208 233 233 254 239 242 242 233 234 241 204 247 233 241 232 230 228 225 210 210 198 155 137 167 154 169 164 154 154 153 157 161 163 172 175 170 172 181 187 193 204 208 215 214 219 205 206
209 261 235 229 226 269 261 239 241 255 275 258 242 259 241 250 230 243 250 233 221 214 209 217 201 190 190 193 189 198 170 158 159 157 161 159 158 162 166 170 171 172 180 185 185 190 199 209 218 222 222 212 209 210
226 250 275 223 266 263 234 229 227 241 253 220 252 243 214 237 246 247 245 251 214 211 208 200 194 196 199 194 183 195 182 171 167 169 165 165 166 161 163 170 172 186 192 188 194 204 209 214 216 214 210 206 205 204
237 2 354 332 318 297 318 274 237 279 287 260 245 305 288 259 253 252 303 3 330 255 223 204 196 194 201 201 189 183 191 173 165 174 180 178 178 181 177 175 179 194 196 204 204 207 212 217 218 217 217 213 208 203
65 8 338 327 303 290 278 263 274 266 257 247 252 249 236 244 243 90 359 338 320 274 242 221 203 208 207 195 192 193 190 172 166 181 183 171 172 177 193 185 182 200 200 204 208 211 217 222 223 226 220 219 218 215
56 6 338 320 295 266 273 275 252 250 279 327 277 235 240 250 337 350 322 321 320 313 201 201 198 199 205 211 210 203 197 192 192 192 186 186 187 187 186 187 188 193 195 197 206 215 222 230 228 230 226 219 220 229
261 309 318 275 276 247 244 255 277 302 296 291 279 276 287 297 285 305 307 312 317 298 220 218 209 208 213 215 210 211 213 210 199 191 189 190 197 200 197 197 198 199 203 208 209 213 216 221 223 225 222 218 223 226
295 320 291 262 245 251 230 233 268 283 274 268 269 277 283 282 286 290 302 296 282 276 247 223 222 218 222 219 212 209 209 203 196 193 200 205 209 210 201 203 202 206 211 210 213 215 220 222 222 220 220 219 219 201
288 279 262 256 265 286 286 286 288 287 277 270 264 262 270 283 288 290 284 264 252 252 256 238 224 215 213 207 204 202 204 207 208 207 206 211 219 209 202 201 205 205 208 214 215 215 209 202 203 205 202 197 199 195
266 261 291 283 291 302 304 293 292 276 284 280 276 274 268 255 265 257 273 268 240 247 250 249 228 220 216 216 213 210 216 219 215 214 214 214 209 209 211 210 207 207 209 213 208 206 194 182 177 175 179 185 186 194
275 275 273 286 284 284 313 318 292 289 277 275 275 277 270 258 261 256 276 265 226 219 205 213 231 226 216 202 201 202 206 218 222 217 216 216 214 209 204 202 202 204 202 199 196 194 188 186 180 185 191 195 202 204
Height
1397 1399 1400 1402 1404 1406 1409 1411 1414 1418 1420 1423 1426 1428 1431 1433 1436 1437 1437 1439 1440 1435 1432 1431 1430 1433 1426 1426 1426 1424 1429 1424 1431 1435 1431 1429 1421 1412 1413 1402 1405 1418 1422 1419 1422 1420 1414 1396 1393 1396 1395 1392 1391 1390
1391 1392 1394 1396 1398 1401 1403 1405 1409 1413 1416 1420 1423 1426 1428 1430 1432 1434 1433 1432 1434 1435 1431 1428 1428 1427 1427 1426 1426 1425 1423 1421 1425 1426 1421 1419 1421 1413 1403 1397 1393 1397 1403 1402 1402 1396 1393 1390 1386 1388 1394 1395 1397 1396
1384 1386 1387 1389 1392 1395 1398 1402 1406 1409 1413 1417 1421 1423 1425 1427 1428 1430 1430 1427 1431 1430 1427 1424 1422 1422 1422 1422 1424 1424 1422 1422 1425 1426 1427 1426 1413 1400 1399 1399 1403 1396 1396 1393 1398 1391 1388 1387 1392 1395 1396 1397 1400 1399
1377 1379 1381 1383 1387 1391 1394 1398 1402 1406 1409 1414 1418 1420 1422 1424 1425 1427 1428 1429 1430 1430 1425 1416 1415 1416 1417 1417 1418 1421 1421 1422 1423 1425 1425 1420 1421 1402 1392 1385 1391 1394 1398 1389 1386 1387 1388 1388 1390 1394 1398 1397 1398 1402
1371 1372 1374 1379 1383 1387 1391 1396 1400 1404 1408 1412 1416 1418 1420 1422 1423 1425 1426 1426 1427 1430 1421 1416 1413 1411 1410 1412 1414 1417 1419 1420 1421 1421 1419 1414 1409 1404 1398 1391 1384 1382 1377 1385 1382 1384 1387 1386 1391 1395 1395 1394 1400 1404
1364 1367 1371 1376 1380 1384 1389 1394 1398 1403 1407 1410 1414 1416 1418 1420 1422 1424 1424 1423 1423 1425 1426 1417 1408 1406 1406 1407 1410 1412 1413 1415 1417 1414 1412 1407 1404 1404 1398 1381 1374 1375 1374 1373 1375 1380 1385 1387 1387 1388 1390 1394 1400 1405
1359 1363 1368 1373 1378 1382 1387 1392 1397 1402 1406 1410 1412 1415 1417 1419 1421 1421 1421 1419 1421 1424 1424 1417 1405 1399 1402 1403 1405 1406 1407 1408 1410 1409 1407 1403 1398 1399 1389 1378 1372 1372 1369 1370 1375 1379 1384 1386 1387 1389 1392 1395 1401 1405
1353 1359 1364 1370 1375 1380 1386 1391 1396 1401 1406 1409 1411 1414 1416 1417 1420 1420 1419 1419 1419 1420 1421 1415 1401 1398 1398 1398 1401 1402 1403 1403 1402 1401 1400 1397 1394 1392 1380 1370 1370 1370 1369 1370 1372 1376 1381 1387 1389 1391 1395 1398 1402 1406
1348 1354 1360 1366 1372 1378 1384 1390 1395 1400 1405 1408 1411 1413 1415 1416 1416 1416 1416 1417 1418 1423 1416 1408 1395 1385 1394 1396 1398 1399 1398 1395 1394 1390 1390 1393 1383 1374 1364 1366 1367 1366 1364 1370 1372 1375 1380 1384 1387 1391 1394 1399 1402 1405
1341 1348 1356 1363 1369 1376 1383 1389 1395 1400 1404 1407 1411 1412 1411 1409 1412 1414 1415 1415 1414 1412 1410 1400 1394 1387 1391 1392 1392 1394 1391 1385 1378 1375 1377 1374 1361 1360 1361 1360 1361 1359 1363 1368 1371 1373 1378 1381 1385 1390 1393 1398 1402 1405
1334 1343 1351 1360 1367 1374 1381 1388 1394 1399 1403 1407 1407 1407 1404 1407 1411 1411 1410 1409 1403 1398 1395 1386 1385 1381 1385 1384 1383 1387 1378 1375 1367 1364 1366 1353 1344 1342 1347 1351 1355 1356 1360 1365 1367 1370 1375 1380 1384 1388 1393 1397 1401 1404
1326 1337 1347 1357 1365 1373 1380 1386 1392 1397 1401 1404 1405 1404 1406 1407 1407 1407 1398 1394 1389 1378 1376 1376 1376 1377 1379 1381 1381 1380 1375 1374 1361 1363 1362 1345 1335 1336 1339 1347 1352 1355 1361 1365 1367 1370 1375 1380 1385 1390 1394 1397 1401 1406
1319 1333 1345 1355 1364 1372 1379 1386 1392 1398 1400 1404 1403 1398 1401 1401 1400 1391 1381 1377 1377 1376 1374 1373 1373 1374 1376 1378 1378 1374 1370 1364 1360 1357 1346 1335 1342 1339 1343 1348 1353 1357 1361 1364 1367 1371 1376 1381 1386 1390 1394 1399 1401 1404
1317 1333 1345 1355 1365 1373 1380 1387 1393 1397 1401 1401 1399 1395 1394 1389 1384 1373 1370 1369 1372 1370 1369 1368 1369 1370 1370 1371 1369 1366 1361 1361 1357 1353 1342 1343 1347 1346 1348 1352 1355 1358 1362 1365 1369 1373 1376 1381 1386 1390 1393 1396 1400 1404
1320 1336 1348 1360 1368 1376 1383 1389 1394 1399 1399 1396 1392 1386 1382 1377 1375 1375 1375 1374 1371 1370 1368 1367 1369 1370 1368 1368 1366 1363 1363 1354 1345 1336 1344 1350 1349 1350 1352 1354 1358 1361 1363 1366 1369 1372 1376 1380 1385 1389 1394 1398 1402 1406
1329 1345 1354 1362 1372 1379 1386 1392 1397 1400 1396 1391 1388 1383 1379 1378 1375 1374 1373 1371 1369 1368 1367 1367 1364 1365 1363 1362 1361 1356 1347 1341 1342 1350 1355 1354 1352 1353 1355 1357 1360 1361 1363 1366 1370 1374 1379 1383 1387 1391 1396 1400 1403 1406
1340 1347 1358 1367 1374 1382 1388 1394 1397 1395 1390 1387 1381 1380 1379 1378 1375 1373 1371 1370 1368 1367 1365 1362 1363 1358 1360 1357 1354 1347 1347 1350 1355 1356 1356 1355 1355 1355 1355 1357 1359 1362 1366 1370 1374 1378 1382 1386 1390 1393 1396 1400 1403 1406
1349 1358 1366 1372 1379 1386 1390 1391 1391 1389 1386 1381 1379 1376 1376 1374 1372 1370 1368 1368 1369 1365 1362 1359 1360 1358 1357 1351 1346 1352 1356 1357 1357 1356 1355 1355 1354 1355 1358 1359 1362 1366 1369 1373 1377 1380 1384 1387 1391 1393 1396 1399 1402 1404
1364 1369 1375 1379 1383 1387 1389 1390 1390 1386 1379 1376 1374 1373 1372 1370 1369 1367 1365 1365 1365 1364 1363 1361 1360 1355 1351 1353 1355 1355 1355 1355 1355 1354 1354 1354 1355 1356 1358 1362 1365 1368 1372 1375 1379 1382 1385 1389 1392 1394 1396 1399 1401 1403
1375 1380 1384 1387 1387 1389 1389 1389 1388 1386 1378 1374 1372 1371 1369 1367 1365 1363 1362 1362 1363 1363 1362 1360 1355 1355 1356 1356 1356 1355 1354 1354 1353 1353 1354 1354 1355 1357 1361 1364 1367 1370 1373 1377 1380 1383 1386 1389 1391 1393 1395 1398 1399 1401
1383 1385 1388 1389 1389 1389 1388 1385 1383 1379 1376 1373 1370 1369 1366 1365 1363 1362 1361 1361 1361 1358 1355 1354 1354 1354 1353 1353 1353 1352 1351 1352 1352 1353 1353 1355 1357 1360 1362 1365 1368 1371 1374 1377 1380 1383 1386 1388 1390 1392 1394 1396 1398 1399
1384 1384 1385 1386 1387 1386 1384 1381 1379 1376 1375 1370 1369 1367 1364 1362 1360 1359 1358 1358 1355 1351 1351 1350 1350 1351 1351 1351 1350 1350 1350 1351 1352 1352 1353 1355 1358 1360 1362 1365 1369 1371 1374 1376 1380 1382 1385 1387 1388 1390 1392 1394 1396 1397
1382 1383 1382 1382 1382 1380 1379 1376 1377 1373 1370 1367 1366 1363 1360 1359 1357 1357 1355 1350 1346 1345 1345 1346 1346 1348 1349 1350 1349 1349 1350 1351 1353 1354 1354 1358 1360 1362 1363 1366 1369 1371 1374 1376 1379 1380 1383 1385 1387 1389 1390 1392 1394 1395
1382 1383 1379 1378 1378 1375 1374 1373 1371 1370 1368 1366 1363 1360 1357 1356 1357 1354 1348 1340 1340 1339 1340 1341 1344 1346 1348 1348 1350 1349 1350 1351 1353 1355 1356 1358 1360 1362 1364 1366 1368 1371 1373 1375 1377 1379 1381 1384 1385 1386 1388 1390 1391 1393
1382 1380 1379 1375 1375 1375 1372 1370 1369 1367 1365 1363 1362 1356 1356 1357 1352 1346 1341 1335 1337 1338 1339 1339 1341 1343 1346 1347 1348 1349 1349 1350 1352 1354 1356 1359 1360 1361 1364 1366 1368 1370 1371 1374 1376 1378 1380 1381 1383 1384 1385 1387 1388 1390
1376 1378 1378 1376 1374 1373 1369 1368 1366 1365 1363 1361 1358 1357 1357 1354 1350 1341 1335 1338 1338 1338 1337 1338 1340 1342 1344 1345 1346 1347 1348 1350 1352 1354 1355 1357 1359 1361 1362 1364 1366 1368 1370 1372 1374 1376 1377 1379 1380 1381 1383 1384 1386 1387
1377 1378 1378 1377 1376 1375 1371 1368 1367 1366 1362 1358 1355 1357 1354 1350 1340 1339 1341 1340 1339 1337 1337 1338 1340 1341 1343 1344 1345 1345 1347 1349 1351 1353 1353 1356 1358 1360 1362 1363 1365 1367 1368 1370 1372 1374 1375 1377 1378 1379 1381 1382 1383 1384
1380 1380 1380 1378 1376 1375 1372 1368 1365 1361 1359 1360 1359 1354 1349 1342 1339 1343 1341 1339 1337 1335 1336 1337 1338 1340 1340 1341 1342 1344 1345 1348 1350 1351 1353 1355 1356 1358 1359 1361 1363 1365 1367 1368 1370 1371 1373 1374 1376 1377 1378 1380 1381 1382
1379 1378 1377 1376 1375 1372 1370 1367 1364 1363 1364 1363 1359 1351 1347 1346 1344 1342 1341 1338 1336 1335 1335 1335 1336 1337 1338 1339 1341 1342 1344 1346 1348 1349 1352 1354 1355 1357 1358 1360 1362 1363 1365 1366 1368 1369 1371 1372 1373 1374 1376 1377 1378 1379
1379 1378 1376 1373 1372 1366 1364 1364 1362 1362 1361 1360 1358 1353 1348 1344 1342 1339 1337 1336 1335 1334 1333 1333 1333 1334 1335 1337 1338 1340 1342 1344 1346 1349 1351 1353 1353 1354 1356 1358 1359 1361 1363 1364 1365 1367 1368 1369 1371 1372 1373 1374 1375 1377
1378 1376 1374 1370 1366 1363 1362 1360 1358 1356 1354 1352 1350 1348 1344 1342 1339 1334 1332 1331 1331 1331 1330 1330 1330 1331 1332 1333 1335 1337 1339 1341 1343 1346 1348 1349 1351 1352 1354 1356 1358 1359 1361 1362 1363 1364 1366 1367 1368 1369 1371 1372 1373 1375
1375 1373 1370 1367 1364 1362 1360 1357 1354 1351 1348 1346 1343 1342 1340 1338 1336 1331 1327 1327 1327 1328 1328 1328 1328 1328 1329 1331 1333 1335 1337 1339 1341 1343 1345 1347 1348 1350 1352 1353 1355 1357 1358 1359 1361 1363 1364 1365 1366 1368 1370 1371 1372 1374
1372 1370 1368 1366 1363 1359 1357 1357 1351 1345 1341 1338 1336 1335 1333 1332 1329 1328 1325 1324 1325 1325 1325 1326 1327 1327 1327 1329 1331 1333 1335 1337 1339 1341 1342 1344 1345 1347 1349 1351 1352 1354 1355 1357 1359 1361 1363 1364 1365 1366 1368 1369 1370 1372